QPF
0.00 0.00 0.00 0.00 0.00 0.00 0.00 0.00 0.00 0.00 0.00 0.00 0.00 0.01 0.01 0.00 0.01 0.01 0.02 0.02 0.03 0.06 0.10 0.09 0.10 0.15 0.18 0.20 0.25 0.20 0.19 0.18 0.15 0.13 0.12 0.09 0.08 0.07 0.05 0.04 0.02 0.01 0.01 0.01
0.00 0.00 0.00 0.00 0.00 0.00 0.00 0.00 0.00 0.00 0.00 0.00 0.00 0.00 0.00 0.00 0.01 0.01 0.02 0.02 0.02 0.04 0.06 0.07 0.10 0.14 0.19 0.21 0.24 0.24 0.21 0.18 0.15 0.11 0.10 0.10 0.08 0.07 0.05 0.03 0.02 0.01 0.01 0.01
0.00 0.00 0.00 0.00 0.00 0.00 0.00 0.00 0.00 0.00 0.00 0.00 0.00 0.00 0.00 0.00 0.01 0.01 0.02 0.02 0.02 0.02 0.03 0.04 0.08 0.11 0.14 0.19 0.22 0.25 0.23 0.17 0.17 0.14 0.12 0.10 0.08 0.05 0.03 0.03 0.02 0.01 0.01 0.01
0.00 0.00 0.00 0.00 0.00 0.00 0.00 0.00 0.00 0.00 0.00 0.00 0.00 0.00 0.00 0.00 0.01 0.01 0.01 0.01 0.01 0.01 0.01 0.04 0.06 0.09 0.10 0.13 0.16 0.23 0.21 0.19 0.18 0.16 0.11 0.07 0.05 0.03 0.02 0.02 0.02 0.01 0.01 0.00
0.00 0.00 0.00 0.00 0.00 0.00 0.00 0.00 0.00 0.00 0.00 0.00 0.00 0.00 0.00 0.00 0.00 0.00 0.00 0.00 0.01 0.01 0.01 0.03 0.04 0.06 0.10 0.13 0.15 0.17 0.19 0.18 0.16 0.13 0.10 0.07 0.05 0.04 0.02 0.02 0.01 0.01 0.00 0.00
0.00 0.00 0.00 0.00 0.00 0.00 0.00 0.00 0.00 0.00 0.00 0.00 0.00 0.00 0.00 0.00 0.00 0.00 0.00 0.00 0.00 0.01 0.01 0.02 0.03 0.05 0.07 0.10 0.14 0.16 0.18 0.16 0.13 0.11 0.09 0.07 0.06 0.05 0.02 0.01 0.01 0.01 0.00 0.00
0.00 0.00 0.00 0.00 0.00 0.00 0.00 0.00 0.00 0.00 0.00 0.00 0.00 0.00 0.00 0.00 0.00 0.00 0.00 0.00 0.01 0.01 0.01 0.02 0.01 0.02 0.03 0.05 0.08 0.09 0.12 0.12 0.11 0.11 0.10 0.07 0.07 0.04 0.02 0.01 0.01 0.00 0.00 0.00
0.00 0.00 0.00 0.00 0.00 0.00 0.00 0.00 0.00 0.00 0.00 0.00 0.00 0.00 0.00 0.00 0.00 0.00 0.00 0.00 0.01 0.03 0.02 0.02 0.01 0.01 0.01 0.03 0.05 0.06 0.07 0.09 0.09 0.10 0.10 0.07 0.06 0.04 0.02 0.01 0.01 0.00 0.00 0.00
0.00 0.00 0.00 0.00 0.00 0.00 0.00 0.00 0.00 0.00 0.00 0.00 0.00 0.00 0.00 0.00 0.00 0.00 0.00 0.00 0.00 0.01 0.01 0.01 0.01 0.01 0.01 0.01 0.04 0.07 0.08 0.09 0.10 0.11 0.11 0.07 0.05 0.03 0.02 0.02 0.01 0.00 0.00 0.00
0.00 0.00 0.00 0.00 0.00 0.00 0.00 0.00 0.01 0.00 0.00 0.00 0.00 0.00 0.00 0.00 0.00 0.00 0.00 0.00 0.00 0.00 0.00 0.00 0.00 0.00 0.00 0.00 0.01 0.03 0.04 0.06 0.10 0.12 0.12 0.07 0.05 0.04 0.03 0.02 0.01 0.01 0.00 0.00
0.00 0.00 0.00 0.00 0.00 0.00 0.00 0.00 0.01 0.01 0.01 0.00 0.00 0.00 0.00 0.00 0.00 0.00 0.00 0.00 0.00 0.00 0.00 0.00 0.00 0.00 0.00 0.00 0.01 0.01 0.03 0.04 0.07 0.10 0.11 0.08 0.05 0.04 0.03 0.02 0.01 0.01 0.01 0.00
0.00 0.00 0.00 0.00 0.00 0.00 0.00 0.00 0.01 0.01 0.00 0.00 0.00 0.00 0.00 0.00 0.00 0.00 0.00 0.00 0.00 0.00 0.00 0.00 0.00 0.00 0.01 0.00 0.00 0.01 0.02 0.03 0.05 0.07 0.08 0.07 0.06 0.05 0.04 0.02 0.01 0.01 0.00 0.00
0.00 0.00 0.00 0.00 0.00 0.00 0.00 0.00 0.01 0.01 0.00 0.00 0.00 0.00 0.00 0.00 0.00 0.00 0.00 0.00 0.01 0.01 0.00 0.00 0.01 0.01 0.01 0.01 0.00 0.01 0.02 0.03 0.06 0.06 0.05 0.05 0.05 0.04 0.03 0.02 0.01 0.01 0.01 0.01
0.00 0.00 0.01 0.01 0.00 0.01 0.00 0.00 0.00 0.00 0.00 0.00 0.00 0.00 0.00 0.00 0.00 0.00 0.00 0.00 0.00 0.01 0.01 0.01 0.01 0.01 0.02 0.02 0.03 0.05 0.06 0.07 0.08 0.06 0.04 0.05 0.04 0.03 0.03 0.02 0.02 0.02 0.01 0.01
0.00 0.00 0.00 0.01 0.01 0.01 0.01 0.01 0.00 0.00 0.00 0.00 0.00 0.00 0.00 0.00 0.00 0.00 0.01 0.00 0.00 0.01 0.01 0.01 0.02 0.02 0.03 0.04 0.06 0.09 0.10 0.11 0.09 0.05 0.05 0.05 0.06 0.04 0.04 0.04 0.03 0.03 0.03 0.03
0.00 0.00 0.00 0.01 0.01 0.01 0.01 0.01 0.01 0.01 0.01 0.01 0.00 0.00 0.01 0.01 0.01 0.01 0.01 0.00 0.00 0.01 0.01 0.01 0.02 0.03 0.04 0.04 0.05 0.06 0.08 0.08 0.07 0.07 0.07 0.07 0.09 0.08 0.07 0.06 0.05 0.06 0.06 0.08
0.00 0.00 0.00 0.00 0.01 0.01 0.01 0.01 0.01 0.01 0.01 0.01 0.01 0.01 0.01 0.01 0.01 0.01 0.01 0.00 0.01 0.01 0.01 0.02 0.03 0.03 0.04 0.05 0.06 0.07 0.08 0.08 0.08 0.09 0.10 0.11 0.12 0.12 0.10 0.10 0.08 0.07 0.07 0.08
0.00 0.00 0.00 0.00 0.01 0.01 0.01 0.02 0.02 0.01 0.01 0.01 0.01 0.01 0.01 0.01 0.02 0.01 0.01 0.01 0.02 0.03 0.03 0.04 0.05 0.05 0.05 0.05 0.05 0.08 0.10 0.11 0.12 0.13 0.14 0.13 0.14 0.13 0.11 0.11 0.09 0.09 0.09 0.09
0.00 0.00 0.00 0.00 0.01 0.01 0.01 0.01 0.01 0.01 0.01 0.01 0.01 0.01 0.01 0.02 0.02 0.03 0.04 0.04 0.05 0.04 0.03 0.03 0.05 0.06 0.05 0.05 0.06 0.07 0.08 0.10 0.11 0.12 0.12 0.11 0.10 0.11 0.10 0.08 0.08 0.08 0.09 0.11
0.00 0.00 0.01 0.01 0.01 0.01 0.01 0.02 0.02 0.02 0.02 0.02 0.03 0.02 0.02 0.03 0.05 0.05 0.06 0.06 0.07 0.06 0.04 0.03 0.03 0.04 0.05 0.06 0.06 0.08 0.09 0.11 0.12 0.13 0.11 0.07 0.06 0.07 0.07 0.06 0.07 0.07 0.06 0.06
0.01 0.01 0.01 0.01 0.01 0.01 0.01 0.02 0.02 0.02 0.02 0.03 0.04 0.04 0.04 0.05 0.06 0.07 0.07 0.07 0.06 0.05 0.04 0.03 0.03 0.03 0.04 0.04 0.05 0.06 0.07 0.08 0.08 0.06 0.04 0.03 0.03 0.04 0.05 0.06 0.05 0.04 0.03 0.03
0.01 0.01 0.01 0.01 0.01 0.01 0.01 0.03 0.03 0.02 0.02 0.03 0.05 0.05 0.07 0.07 0.07 0.07 0.09 0.08 0.06 0.04 0.04 0.03 0.03 0.02 0.03 0.03 0.02 0.03 0.04 0.04 0.03 0.02 0.02 0.02 0.02 0.02 0.01 0.02 0.02 0.02 0.02 0.02
0.03 0.02 0.02 0.01 0.01 0.01 0.02 0.03 0.02 0.02 0.02 0.04 0.06 0.06 0.08 0.10 0.10 0.08 0.08 0.08 0.05 0.04 0.04 0.05 0.04 0.03 0.03 0.03 0.04 0.03 0.02 0.02 0.02 0.01 0.01 0.01 0.01 0.01 0.00 0.00 0.01 0.01 0.01 0.01
0.04 0.04 0.04 0.03 0.03 0.03 0.03 0.03 0.03 0.02 0.03 0.04 0.08 0.09 0.11 0.12 0.10 0.09 0.08 0.05 0.04 0.03 0.04 0.04 0.04 0.04 0.03 0.03 0.03 0.03 0.02 0.01 0.02 0.02 0.01 0.01 0.01 0.00 0.00 0.00 0.00 0.00 0.00 0.00
0.09 0.09 0.07 0.09 0.09 0.06 0.05 0.05 0.04 0.04 0.05 0.09 0.11 0.12 0.14 0.15 0.12 0.10 0.07 0.04 0.03 0.03 0.03 0.03 0.03 0.03 0.02 0.01 0.01 0.01 0.01 0.01 0.00 0.00 0.00 0.00 0.00 0.00 0.00 0.00 0.00 0.00 0.00 0.00
0.12 0.13 0.16 0.15 0.12 0.09 0.09 0.10 0.09 0.08 0.09 0.11 0.12 0.15 0.16 0.14 0.12 0.09 0.07 0.05 0.03 0.02 0.02 0.01 0.01 0.01 0.00 0.00 0.00 0.00 0.00 0.00 0.00 0.00 0.00 0.00 0.00 0.00 0.00 0.00 0.00 0.00 0.00 0.00
MSLP
1011.73 1012.45 1012.96 1013.24 1013.34 1013.29 1013.15 1012.94 1012.68 1012.36 1011.98 1011.53 1011.02 1010.47 1009.91 1009.39 1008.96 1008.64 1008.46 1008.40 1008.44 1008.56 1008.71 1008.89 1009.09 1009.31 1009.60 1009.97 1010.44 1011.03 1011.72 1012.46 1013.23 1013.96 1014.61 1015.16 1015.59 1015.93 1016.21 1016.46 1016.71 1016.99 1017.29 1017.61
1012.07 1012.65 1013.02 1013.19 1013.24 1013.21 1013.16 1013.11 1013.03 1012.91 1012.70 1012.36 1011.89 1011.31 1010.67 1010.01 1009.43 1008.97 1008.65 1008.49 1008.45 1008.50 1008.59 1008.70 1008.81 1008.94 1009.13 1009.41 1009.82 1010.39 1011.11 1011.95 1012.83 1013.71 1014.51 1015.18 1015.72 1016.11 1016.39 1016.62 1016.83 1017.06 1017.33 1017.65
1012.08 1012.51 1012.73 1012.82 1012.85 1012.89 1012.98 1013.13 1013.28 1013.38 1013.35 1013.13 1012.71 1012.09 1011.34 1010.55 1009.80 1009.19 1008.74 1008.48 1008.38 1008.39 1008.45 1008.51 1008.56 1008.61 1008.71 1008.90 1009.25 1009.79 1010.52 1011.42 1012.41 1013.42 1014.36 1015.17 1015.80 1016.26 1016.58 1016.80 1016.98 1017.18 1017.43 1017.73
1011.78 1012.05 1012.15 1012.17 1012.23 1012.38 1012.66 1013.04 1013.45 1013.78 1013.94 1013.83 1013.44 1012.77 1011.90 1010.96 1010.05 1009.28 1008.72 1008.38 1008.24 1008.23 1008.29 1008.35 1008.38 1008.39 1008.43 1008.55 1008.83 1009.32 1010.04 1010.96 1012.02 1013.13 1014.18 1015.10 1015.84 1016.38 1016.74 1016.97 1017.15 1017.33 1017.55 1017.84
1011.27 1011.37 1011.37 1011.37 1011.49 1011.79 1012.28 1012.92 1013.59 1014.15 1014.47 1014.46 1014.07 1013.33 1012.34 1011.23 1010.15 1009.24 1008.57 1008.18 1008.03 1008.05 1008.16 1008.27 1008.33 1008.34 1008.35 1008.42 1008.64 1009.07 1009.75 1010.65 1011.73 1012.88 1014.00 1015.00 1015.82 1016.42 1016.83 1017.09 1017.28 1017.45 1017.66 1017.93
1010.66 1010.62 1010.54 1010.55 1010.76 1011.22 1011.93 1012.82 1013.72 1014.49 1014.95 1014.99 1014.58 1013.76 1012.62 1011.35 1010.11 1009.07 1008.33 1007.91 1007.79 1007.88 1008.08 1008.28 1008.43 1008.49 1008.51 1008.56 1008.73 1009.09 1009.69 1010.53 1011.56 1012.70 1013.83 1014.87 1015.73 1016.38 1016.83 1017.12 1017.32 1017.50 1017.71 1017.98
1010.08 1009.92 1009.79 1009.83 1010.14 1010.76 1011.67 1012.76 1013.86 1014.77 1015.33 1015.39 1014.94 1014.01 1012.74 1011.32 1009.95 1008.81 1008.01 1007.60 1007.54 1007.73 1008.06 1008.40 1008.66 1008.82 1008.89 1008.94 1009.06 1009.34 1009.85 1010.59 1011.53 1012.60 1013.69 1014.70 1015.57 1016.24 1016.72 1017.04 1017.26 1017.46 1017.68 1017.95
1009.63 1009.38 1009.23 1009.30 1009.70 1010.46 1011.52 1012.76 1013.98 1014.98 1015.56 1015.61 1015.09 1014.06 1012.68 1011.14 1009.67 1008.47 1007.66 1007.29 1007.31 1007.62 1008.10 1008.60 1009.00 1009.27 1009.41 1009.49 1009.58 1009.79 1010.19 1010.81 1011.62 1012.57 1013.57 1014.52 1015.36 1016.02 1016.50 1016.84 1017.09 1017.31 1017.54 1017.82
1009.33 1009.04 1008.89 1009.01 1009.47 1010.31 1011.46 1012.77 1014.03 1015.03 1015.59 1015.59 1015.00 1013.89 1012.43 1010.82 1009.31 1008.10 1007.31 1007.00 1007.11 1007.56 1008.18 1008.83 1009.38 1009.77 1009.99 1010.10 1010.18 1010.33 1010.63 1011.12 1011.79 1012.60 1013.48 1014.34 1015.11 1015.74 1016.22 1016.56 1016.83 1017.06 1017.30 1017.59
1009.20 1008.90 1008.77 1008.92 1009.43 1010.29 1011.44 1012.73 1013.95 1014.89 1015.38 1015.30 1014.64 1013.49 1012.00 1010.39 1008.90 1007.73 1007.01 1006.77 1006.98 1007.53 1008.28 1009.05 1009.72 1010.21 1010.51 1010.66 1010.75 1010.85 1011.07 1011.45 1011.99 1012.67 1013.42 1014.18 1014.87 1015.44 1015.89 1016.23 1016.50 1016.73 1016.98 1017.28
1009.19 1008.93 1008.83 1009.01 1009.51 1010.34 1011.42 1012.60 1013.70 1014.51 1014.88 1014.72 1014.02 1012.87 1011.42 1009.88 1008.48 1007.41 1006.77 1006.63 1006.93 1007.56 1008.38 1009.22 1009.97 1010.53 1010.89 1011.08 1011.18 1011.27 1011.44 1011.73 1012.17 1012.74 1013.38 1014.04 1014.65 1015.16 1015.58 1015.90 1016.15 1016.38 1016.62 1016.90
1009.26 1009.06 1009.01 1009.20 1009.66 1010.40 1011.34 1012.35 1013.25 1013.90 1014.13 1013.89 1013.18 1012.07 1010.72 1009.33 1008.08 1007.15 1006.65 1006.59 1006.95 1007.62 1008.46 1009.33 1010.09 1010.68 1011.07 1011.30 1011.42 1011.52 1011.67 1011.92 1012.30 1012.79 1013.35 1013.92 1014.46 1014.92 1015.29 1015.58 1015.82 1016.03 1016.25 1016.49
1009.37 1009.26 1009.27 1009.45 1009.84 1010.44 1011.19 1011.97 1012.65 1013.09 1013.18 1012.87 1012.17 1011.16 1009.97 1008.77 1007.73 1006.98 1006.62 1006.66 1007.06 1007.73 1008.53 1009.36 1010.09 1010.66 1011.05 1011.30 1011.45 1011.57 1011.74 1011.99 1012.35 1012.80 1013.31 1013.82 1014.30 1014.72 1015.05 1015.31 1015.52 1015.70 1015.89 1016.10
1009.54 1009.52 1009.57 1009.73 1010.03 1010.46 1010.97 1011.49 1011.91 1012.13 1012.08 1011.72 1011.06 1010.19 1009.20 1008.23 1007.43 1006.89 1006.69 1006.81 1007.23 1007.85 1008.59 1009.32 1009.97 1010.49 1010.86 1011.11 1011.29 1011.46 1011.67 1011.95 1012.32 1012.77 1013.25 1013.73 1014.18 1014.56 1014.86 1015.09 1015.27 1015.43 1015.58 1015.76
1009.78 1009.84 1009.92 1010.04 1010.21 1010.45 1010.72 1010.96 1011.11 1011.12 1010.92 1010.52 1009.93 1009.20 1008.44 1007.73 1007.19 1006.87 1006.81 1007.01 1007.43 1008.00 1008.63 1009.25 1009.79 1010.22 1010.55 1010.80 1011.01 1011.22 1011.49 1011.82 1012.23 1012.69 1013.17 1013.64 1014.06 1014.42 1014.70 1014.91 1015.08 1015.22 1015.35 1015.49
1010.12 1010.24 1010.31 1010.36 1010.40 1010.43 1010.44 1010.41 1010.31 1010.10 1009.78 1009.34 1008.82 1008.26 1007.72 1007.28 1006.98 1006.87 1006.96 1007.23 1007.65 1008.14 1008.66 1009.16 1009.58 1009.93 1010.21 1010.44 1010.68 1010.95 1011.27 1011.67 1012.12 1012.61 1013.10 1013.57 1013.98 1014.32 1014.59 1014.79 1014.95 1015.09 1015.21 1015.33
1010.58 1010.70 1010.74 1010.69 1010.58 1010.40 1010.16 1009.87 1009.53 1009.13 1008.70 1008.25 1007.80 1007.39 1007.07 1006.86 1006.80 1006.88 1007.11 1007.44 1007.85 1008.29 1008.71 1009.09 1009.41 1009.67 1009.91 1010.15 1010.41 1010.72 1011.10 1011.55 1012.05 1012.56 1013.07 1013.53 1013.94 1014.27 1014.54 1014.75 1014.92 1015.06 1015.20 1015.33
1011.11 1011.20 1011.15 1010.99 1010.70 1010.32 1009.86 1009.34 1008.80 1008.25 1007.74 1007.28 1006.90 1006.63 1006.50 1006.50 1006.64 1006.89 1007.24 1007.63 1008.04 1008.44 1008.79 1009.08 1009.33 1009.54 1009.75 1009.99 1010.28 1010.64 1011.07 1011.57 1012.09 1012.62 1013.13 1013.59 1013.99 1014.32 1014.59 1014.82 1015.01 1015.19 1015.36 1015.52
1011.65 1011.64 1011.48 1011.17 1010.72 1010.15 1009.50 1008.81 1008.12 1007.47 1006.90 1006.46 1006.15 1006.01 1006.03 1006.21 1006.52 1006.91 1007.36 1007.81 1008.24 1008.62 1008.93 1009.18 1009.39 1009.59 1009.80 1010.06 1010.38 1010.78 1011.25 1011.77 1012.32 1012.85 1013.36 1013.81 1014.19 1014.52 1014.80 1015.04 1015.27 1015.48 1015.70 1015.90
1012.08 1011.93 1011.62 1011.16 1010.56 1009.84 1009.06 1008.25 1007.47 1006.77 1006.21 1005.80 1005.58 1005.55 1005.71 1006.03 1006.47 1006.98 1007.51 1008.03 1008.48 1008.87 1009.18 1009.42 1009.64 1009.84 1010.08 1010.37 1010.74 1011.17 1011.67 1012.21 1012.76 1013.29 1013.77 1014.20 1014.57 1014.89 1015.18 1015.44 1015.70 1015.96 1016.22 1016.47
1012.27 1011.95 1011.49 1010.89 1010.16 1009.35 1008.49 1007.64 1006.85 1006.17 1005.65 1005.32 1005.20 1005.29 1005.56 1006.00 1006.54 1007.14 1007.75 1008.31 1008.81 1009.22 1009.56 1009.83 1010.07 1010.32 1010.60 1010.94 1011.34 1011.81 1012.33 1012.87 1013.41 1013.92 1014.38 1014.78 1015.13 1015.45 1015.73 1016.01 1016.29 1016.59 1016.89 1017.18
1012.15 1011.66 1011.05 1010.33 1009.52 1008.66 1007.80 1006.97 1006.25 1005.65 1005.24 1005.03 1005.03 1005.23 1005.62 1006.15 1006.77 1007.44 1008.10 1008.71 1009.25 1009.70 1010.08 1010.40 1010.70 1011.00 1011.33 1011.72 1012.16 1012.65 1013.17 1013.70 1014.22 1014.70 1015.13 1015.50 1015.83 1016.13 1016.41 1016.70 1017.00 1017.32 1017.65 1017.97
1011.68 1011.04 1010.30 1009.50 1008.66 1007.82 1007.02 1006.30 1005.70 1005.25 1004.99 1004.93 1005.07 1005.39 1005.88 1006.49 1007.18 1007.89 1008.59 1009.24 1009.81 1010.31 1010.73 1011.11 1011.46 1011.82 1012.20 1012.63 1013.09 1013.59 1014.10 1014.62 1015.10 1015.54 1015.94 1016.28 1016.58 1016.86 1017.14 1017.43 1017.74 1018.06 1018.40 1018.73
1010.92 1010.16 1009.34 1008.50 1007.69 1006.92 1006.24 1005.67 1005.25 1005.00 1004.93 1005.04 1005.32 1005.77 1006.35 1007.03 1007.76 1008.51 1009.23 1009.89 1010.50 1011.03 1011.49 1011.92 1012.32 1012.72 1013.13 1013.57 1014.04 1014.53 1015.02 1015.50 1015.94 1016.34 1016.69 1017.01 1017.29 1017.55 1017.82 1018.10 1018.41 1018.74 1019.08 1019.41
1009.98 1009.15 1008.30 1007.48 1006.74 1006.09 1005.57 1005.20 1004.99 1004.95 1005.07 1005.35 1005.79 1006.35 1007.00 1007.73 1008.49 1009.25 1009.97 1010.65 1011.26 1011.82 1012.31 1012.76 1013.19 1013.61 1014.03 1014.47 1014.91 1015.37 1015.81 1016.24 1016.63 1016.99 1017.30 1017.58 1017.85 1018.10 1018.36 1018.65 1018.95 1019.27 1019.60 1019.92
1009.04 1008.19 1007.37 1006.62 1005.98 1005.48 1005.15 1004.97 1004.97 1005.13 1005.44 1005.88 1006.44 1007.08 1007.80 1008.55 1009.32 1010.07 1010.79 1011.46 1012.07 1012.63 1013.13 1013.59 1014.01 1014.43 1014.83 1015.23 1015.63 1016.03 1016.41 1016.77 1017.10 1017.41 1017.69 1017.95 1018.20 1018.45 1018.72 1019.00 1019.31 1019.63 1019.96 1020.27
Thickness
5775 5759 5750 5754 5758 5760 5755 5749 5745 5760 5776 5770 5763 5761 5763 5766 5762 5755 5750 5746 5742 5739 5738 5735 5732 5729 5726 5724 5721 5719 5719 5718 5718 5717 5715 5714 5714 5715 5717 5718 5718 5718 5718 5719
5756 5749 5762 5767 5766 5760 5754 5746 5747 5761 5773 5767 5758 5757 5762 5762 5759 5756 5750 5746 5742 5738 5734 5732 5730 5727 5724 5722 5720 5718 5717 5717 5717 5717 5717 5716 5715 5714 5714 5715 5715 5716 5716 5717
5748 5759 5771 5767 5761 5756 5753 5748 5750 5753 5763 5761 5754 5748 5753 5757 5757 5755 5752 5748 5744 5740 5735 5731 5728 5725 5723 5720 5719 5718 5717 5716 5716 5715 5714 5712 5711 5710 5710 5710 5712 5713 5714 5715
5751 5764 5765 5761 5758 5758 5746 5763 5763 5758 5746 5735 5741 5724 5743 5748 5748 5750 5749 5746 5743 5741 5737 5732 5729 5725 5723 5721 5719 5718 5717 5714 5713 5713 5712 5711 5710 5708 5709 5709 5709 5710 5712 5713
5750 5762 5760 5756 5762 5765 5759 5767 5760 5753 5742 5731 5732 5724 5731 5744 5742 5746 5748 5747 5745 5743 5739 5734 5731 5728 5725 5723 5720 5718 5716 5714 5713 5713 5713 5711 5709 5709 5709 5708 5708 5708 5709 5711
5759 5770 5769 5768 5775 5774 5769 5758 5747 5733 5725 5717 5728 5721 5725 5736 5746 5749 5751 5750 5747 5744 5741 5736 5733 5729 5725 5723 5721 5719 5716 5714 5713 5713 5712 5711 5709 5708 5706 5706 5706 5706 5707 5708
5745 5758 5770 5776 5764 5766 5760 5735 5712 5711 5703 5709 5725 5720 5727 5753 5759 5757 5754 5752 5750 5745 5741 5736 5732 5729 5726 5724 5721 5719 5717 5714 5714 5713 5712 5711 5710 5709 5708 5707 5707 5706 5705 5706
5725 5730 5759 5769 5763 5753 5750 5738 5712 5702 5699 5708 5720 5718 5741 5764 5766 5764 5761 5757 5752 5746 5742 5738 5735 5732 5729 5726 5723 5721 5718 5716 5715 5714 5713 5712 5711 5710 5710 5709 5709 5708 5707 5708
5721 5727 5761 5772 5774 5764 5745 5736 5738 5714 5709 5703 5712 5727 5748 5765 5762 5761 5758 5756 5752 5748 5745 5741 5737 5734 5731 5728 5725 5723 5721 5718 5716 5715 5713 5711 5711 5710 5709 5709 5709 5708 5708 5708
5737 5729 5750 5765 5769 5764 5759 5741 5721 5710 5698 5696 5712 5720 5731 5752 5756 5757 5756 5754 5752 5749 5746 5742 5739 5736 5733 5731 5727 5724 5722 5719 5717 5715 5714 5713 5711 5711 5710 5709 5708 5708 5708 5707
5740 5728 5737 5748 5749 5746 5743 5736 5725 5710 5709 5697 5696 5717 5755 5758 5760 5758 5757 5756 5753 5749 5747 5744 5741 5739 5735 5732 5728 5725 5722 5720 5717 5716 5714 5713 5712 5711 5710 5709 5708 5708 5707 5706
5734 5721 5717 5733 5753 5760 5752 5740 5726 5715 5709 5703 5701 5721 5769 5766 5764 5761 5758 5757 5755 5751 5748 5745 5742 5739 5736 5732 5729 5726 5724 5721 5719 5716 5714 5712 5711 5710 5709 5708 5707 5707 5706 5705
5729 5713 5705 5715 5727 5741 5742 5740 5733 5723 5710 5698 5700 5726 5765 5764 5761 5761 5758 5755 5752 5750 5747 5744 5741 5738 5736 5733 5731 5728 5725 5722 5719 5716 5713 5711 5709 5708 5707 5706 5706 5705 5704 5703
5727 5708 5704 5704 5713 5726 5730 5734 5730 5722 5707 5703 5713 5734 5754 5757 5756 5757 5756 5753 5750 5747 5744 5741 5738 5737 5735 5733 5731 5728 5725 5723 5719 5716 5713 5710 5709 5707 5706 5704 5704 5703 5702 5701
5717 5703 5708 5712 5722 5725 5727 5732 5730 5725 5725 5720 5730 5734 5751 5757 5757 5756 5754 5751 5747 5744 5741 5739 5736 5734 5733 5731 5729 5727 5725 5722 5719 5716 5712 5709 5707 5705 5704 5702 5701 5700 5699 5698
5701 5697 5700 5703 5717 5719 5721 5730 5732 5732 5733 5732 5737 5740 5758 5759 5756 5753 5751 5749 5744 5741 5739 5737 5734 5732 5731 5729 5727 5725 5722 5720 5717 5713 5710 5707 5704 5702 5700 5698 5696 5694 5693 5692
5686 5685 5682 5682 5701 5706 5702 5724 5730 5733 5739 5738 5734 5747 5753 5751 5751 5750 5748 5746 5742 5739 5736 5733 5731 5729 5728 5727 5725 5722 5719 5716 5712 5709 5706 5703 5700 5697 5694 5692 5690 5688 5686 5684
5675 5672 5666 5668 5682 5674 5707 5733 5737 5735 5740 5743 5746 5749 5749 5749 5745 5743 5742 5740 5736 5733 5731 5728 5725 5723 5722 5721 5719 5717 5714 5710 5707 5703 5699 5697 5695 5691 5688 5685 5683 5680 5678 5675
5670 5664 5656 5654 5659 5675 5701 5720 5726 5724 5727 5740 5740 5741 5740 5739 5737 5732 5732 5732 5729 5726 5723 5720 5718 5716 5715 5713 5712 5709 5705 5702 5698 5694 5691 5688 5686 5683 5680 5676 5674 5671 5668 5665
5660 5658 5652 5648 5653 5659 5690 5714 5723 5721 5714 5734 5736 5734 5734 5734 5725 5722 5723 5722 5718 5716 5714 5712 5709 5706 5705 5703 5703 5700 5695 5691 5687 5684 5682 5679 5676 5673 5669 5665 5662 5660 5657 5653
5647 5645 5644 5644 5647 5664 5692 5704 5711 5697 5709 5726 5728 5728 5727 5726 5725 5718 5714 5711 5708 5705 5703 5701 5699 5695 5693 5693 5693 5688 5684 5679 5676 5675 5672 5668 5665 5661 5658 5654 5650 5647 5643 5639
5638 5636 5637 5638 5640 5655 5688 5692 5691 5699 5711 5717 5718 5719 5716 5714 5712 5707 5704 5701 5697 5692 5690 5690 5686 5683 5680 5681 5681 5676 5670 5666 5665 5663 5659 5655 5652 5650 5646 5641 5637 5633 5629 5624
5636 5638 5638 5642 5650 5667 5677 5681 5689 5696 5701 5706 5708 5708 5706 5702 5698 5695 5692 5690 5685 5681 5679 5677 5674 5671 5667 5666 5666 5662 5656 5655 5653 5649 5644 5641 5638 5634 5631 5627 5623 5619 5614 5609
5637 5640 5637 5641 5654 5663 5671 5677 5684 5690 5693 5697 5699 5698 5696 5691 5687 5682 5680 5676 5673 5670 5667 5664 5662 5660 5654 5651 5650 5647 5644 5643 5640 5635 5630 5626 5623 5619 5616 5612 5608 5605 5600 5595
5634 5636 5635 5639 5650 5657 5666 5670 5677 5682 5685 5686 5686 5687 5685 5681 5674 5670 5667 5662 5659 5657 5655 5653 5650 5646 5641 5638 5636 5634 5632 5630 5626 5622 5617 5613 5609 5605 5601 5596 5592 5589 5584 5581
5633 5635 5635 5639 5647 5649 5655 5663 5670 5673 5673 5674 5674 5671 5669 5668 5663 5658 5653 5649 5647 5644 5642 5639 5636 5633 5629 5626 5624 5621 5619 5617 5614 5609 5604 5600 5596 5592 5588 5583 5577 5572 5568 5564